Flag for Australia Weather past 2 weeks in Lord Howe Island, Lord Howe Island, Australia

Now
62 °F

Overcast.


Feels Like: 62 °F
Forecast: 61 / 65 °F
Wind: 13 mph from Southwest

Location: Lord Howe Island

Current Time: Sep 18, 2014 at 6:54:46 PM

Latest Report: Sep 18, 2014 at 6:00 PM


Visibility: N/A

Pressure: 29.99 "Hg

Humidity: 66%

Dew point: 51 °F

Location of Lord Howe IslandLocation

Historic Weather in Lord Howe Island — Graph

°F

Lord Howe Island temperature yesterday

Maximum temperature yesterday: 70 °F (at 10:30 AM)
Minimum temperature yesterday: 64 °F (at 1:30 AM)
Average temperature yesterday: 67 °F

Past Weeks' High & Low Weather Summary

 TemperatureHumidityPressure
High70 °F (Sep 15, 12:00 PM)97% (Sep 10, 10:30 PM)30.38 "Hg (Sep 10, 10:30 PM)
Low50 °F (Sep 14, 1:30 AM)47% (Sep 6, 10:30 PM)29.29 "Hg (Sep 3, 4:30 PM)
Average63 °F69%30.05 "Hg
* Reported Sep 3 4:30 PM — Sep 18 4:30 PM, Lord Howe Island, Weather by CustomWeather, © 2014

Note: Actual official high and low records may vary slightly from our data, if they occured in-between our weather recording intervals... More about our weather records

Advertising

Lord Howe Island weather history for previous 24 hours

 ConditionsComfort  
Time TempWeatherWind HumidityBarometerVisibility
4:30 PM
Sep 18
64 °FMild.15 mph66%29.95 "HgN/A
3:00 PM66 °FScattered clouds.24 mph53%29.92 "Hg19 mi
1:30 PM67 °FMild.17 mph54%29.93 "HgN/A
12:00 PM68 °FPartly sunny.17 mph56%29.96 "Hg19 mi
10:30 AM63 °FMild.17 mph64%30.00 "HgN/A
9:00 AM66 °FPartly sunny.9 mph50%29.98 "Hg19 mi
7:30 AM66 °FMild.12 mph53%29.97 "HgN/A
6:00 AM65 °FPartly sunny.14 mph58%29.96 "Hg19 mi
4:30 AM65 °FMild.16 mph61%29.93 "HgN/A
3:00 AM65 °FMild.17 mph69%29.92 "HgN/A
1:30 AM65 °FMild.16 mph66%29.93 "HgN/A
12:00 AM66 °FOvercast.17 mph65%29.94 "HgN/A
10:30 PM
Sep 17
66 °FMild.17 mph63%29.94 "HgN/A
9:00 PM66 °FOvercast.16 mph64%29.94 "HgN/A
7:30 PM66 °FMild.17 mph60%29.92 "HgN/A
6:00 PM66 °FMild.16 mph65%29.88 "HgN/A
Weather by CustomWeather, © 2014

See weather overviewHow to use our weather pages